Regional Weather Roundup
Issued by NWS Sterling, VA

Home | Current Version | Previous Version | Graphics & Text | Print | Product List | Glossary On
Versions: 1 2 3 4 5 6 7 8 9 10 11 12 13 14 15 16 17 18 19 20 21 22 23 24 25 26
000
ASUS41 KLWX 101910
RWRLWX

REGIONAL WEATHER ROUNDUP
NATIONAL WEATHER SERVICE BALTIMORE MD/WASHINGTON DC
200 PM EST SUN DEC 10 2017

Note: "FAIR" indicates few or no clouds below 12,000 feet
with no significant weather and/or obstructions to visibility.
 TC=TEMPERATURE CELSIUS

 * =Non NWS site. Station does not report precipitation (e.g. rain,
    snow, etc.), thunder, or fog.

DCZ001-MDZ009-015-VAZ040>042-051-053>054-102000-
WASHINGTON METRO

CITY           SKY/WX    TMP DP  RH WIND       PRES   REMARKS
WASHINGTON NAT PTSUNNY   40  24  53 W9G18     30.06S
DULLES         PTSUNNY   38  24  57 W8        30.04S
ANDREWS AFB    CLOUDY    40  24  52 W12       30.03S
FT BELVOIR     CLOUDY    42  23  47 W12       30.05S
QUANTICO       MOSUNNY   41  25  53 W7        30.07F
COLLEGE PARK*  PTSUNNY   38  22  52 SW7       30.04S
LEESBURG*      PTSUNNY   37  27  65 W12G20    30.03F
MANASSAS*      PTSUNNY   39  24  55 W7        30.05F
GAITHERSBURG*  MOSUNNY   35  21  56 W9G17     30.02F WCI  28

$$

MDZ006>007-011-014-102000-
BALTIMORE METRO

CITY           SKY/WX    TMP DP  RH WIND       PRES   REMARKS
BWI AIRPORT    PTSUNNY   37  24  59 W17       30.02F WCI  27
MD SCIENCE CTR   N/A     39  22  50 MISG      30.03S
MARTIN STATE   PTSUNNY   39  25  56 W12       30.04F
ANNAPOLIS      MOSUNNY   38  25  59 W9        30.03F
FORT MEADE*    PTSUNNY   36  27  69 W9        30.06S WCI  29

$$

MDZ012-015-019>023-102000-
MARYLAND EASTERN SHORE

CITY           SKY/WX    TMP DP  RH WIND       PRES   REMARKS
OCEAN CITY     SUNNY     38  28  67 W13G20    30.05S
SALISBURY      SUNNY     37  24  59 W13       30.05F WCI  29
BAY BRIDGE AP* MOSUNNY   37  25  60 W13       30.04F
CAMBRIDGE*     PTSUNNY   37  25  60 VRB6G12   30.05F
EASTON*        MOSUNNY   39  25  56 W10G20    30.08F

$$

MDZ017>025-102000-
SOUTHERN MARYLAND

CITY           SKY/WX    TMP DP  RH WIND       PRES   REMARKS
PATUXENT RIVER MOSUNNY   39  25  57 SW13      30.06F
ST INIGOES     SUNNY     39  25  57 W9        30.06F
LEONARDTOWN*   MOSUNNY   37  28  70 SW8       30.06F

$$

MDZ003>005-102000-
NORTH CENTRAL MARYLAND

CITY           SKY/WX    TMP DP  RH WIND       PRES   REMARKS
FREDERICK*     PTSUNNY   39  19  45 W12       30.05F
HAGERSTOWN APT CLOUDY    38  17  42 W14       29.98F
WESTMINSTER*   CLOUDY    36  25  64 W9        29.98F WCI  29

$$

MDZ501>502-102000-
WESTERN MARYLAND

CITY           SKY/WX    TMP DP  RH WIND       PRES   REMARKS
OAKLAND*       CLOUDY    23  18  80 W12G25    29.86F WCI  12
CUMBERLAND*    PTSUNNY   36  18  48 W9        30.05F WCI  29

$$

VAZ025>031-102000-
SHENANDOAH VALLEY

CITY           SKY/WX    TMP DP  RH WIND       PRES   REMARKS
WINCHESTER*    PTSUNNY   36  19  51 W15G22    30.01F WCI  26
FRONT ROYAL*   FAIR      37  21  52 MISG      30.01F
LURAY*         SUNNY     36  23  60 SW9       30.02F WCI  29
NEW MARKET*    MOSUNNY   38  18  44 SW8       30.01F
STAUNTON*      SUNNY     36  21  53 SW9       30.04F
WAYNESBORO*    SUNNY     35  19  52 W9G16     30.02F WCI  28

$$

WVZ021-048>050-054>055-102000-
EASTERN WEST VIRGINIA PANHANDLE

CITY           SKY/WX    TMP DP  RH WIND       PRES   REMARKS
MARTINSBURG    MOSUNNY   37  16  42 W22       30.01S WCI  26
PETERSBURG*    PTSUNNY   35  17  47 W12G25    30.03F WCI  27

$$

VAZ036>039-050-102000-
CENTRAL FOOTHILLS

CITY           SKY/WX    TMP DP  RH WIND       PRES   REMARKS
CHARLOTTESVILL MOSUNNY   41  19  41 W8        30.04F
CULPEPER*      FAIR      42  22  45 W8        30.06S
ORANGE*        SUNNY     37  23  56 SW9       30.05S
GORDONSVILLE*  MOSUNNY   41  22  48 W6G16     30.04F
WARRENTON*     CLOUDY    41  21  44 SW7       30.04S

$$

VAZ055>057-102000-
NORTH AND CENTRAL PIEDMONT

CITY           SKY/WX    TMP DP  RH WIND       PRES   REMARKS
FREDERICKSBRG* MOSUNNY   41  27  59 SW7       30.06S
STAFFORD*      PTSUNNY   40  25  54 W5        30.09F

$$

NCZ024-NYZ072-PAZ021-071-VAZ022-071-102000-
OTHER REGIONAL OBSERVATIONS

CITY           SKY/WX    TMP DP  RH WIND       PRES   REMARKS
NEW YORK CITY    N/A     38  23  55 VRB5G17   29.93S
PHILADELPHIA   MOSUNNY   38  21  50 W18       29.99S WCI  28
PITTSBURGH     CLOUDY    32  18  56 W16G23    29.95F WCI  21
ROANOKE        SUNNY     39  18  42 SW9G17    30.08F
RICHMOND       MOSUNNY   39  26  59 SW13      30.09F
RALEIGH        MOSUNNY   42  25  50 VRB6G16   30.15F

$$

ANZ530>537-102000-
MARINE OBSERVATIONS

STATION/POSITION TIME  TEMP    WIND        PRES
                       AIR SEA DIR/SP/G
                 (UTC) (F)     (DEG/KT/KT) (MB)
THOMAS PT LIGHT  1900   38 48  260/ 13/ 15   N/A
BALT KEY BRIDGE  1848   38     270/ 16/ 19 1016.5F
COVE POINT       1848   39     270/  7/ 12 1018.2F
LEWISETTA        1848   38 44  270/  8/ 12 1018.1F
SOLOMONS ISLAND  1848   41 49  250/ 11/ 17 1017.5F
PINEY POINT      1848          280/  9/ 11   N/A

$$





USA.gov is the U.S. government's official web portal to all federal, state and local government web resources and services.